QFA139 NZWN-YMHB

Flight info

Callsign QFA139
Flight time 3h 17m
Altitude 36000
Route VANDA DCT KABIN M643 PECOB DCT IPLET
Aircraft B738/M-SDE2E3FGHIRWXY/LB1

Departure

Time 2026-05-09 07:16
Airport Wellington International Airport (NZWN)

Arrival

Time 2026-05-09 10:33
Airport Hobart International Airport (YMHB)
Time Latitude Longitude Altitude Speed Heading
2026-05-09 06:51 -41.32864 174.81001 25 ft 0 kts 53°
2026-05-09 07:07 -41.32879 174.80975 31 ft 6 kts 53°
2026-05-09 07:08 -41.32882 174.80970 28 ft 0 kts 53°
2026-05-09 07:08 -41.32880 174.80985 31 ft 3 kts 91°
2026-05-09 07:09 -41.32897 174.81005 27 ft 3 kts 163°
2026-05-09 07:09 -41.32918 174.80993 26 ft 3 kts 226°
2026-05-09 07:09 -41.32921 174.80968 29 ft 0 kts 267°
2026-05-09 07:10 -41.32920 174.80941 25 ft 8 kts 275°
2026-05-09 07:10 -41.32934 174.80890 28 ft 2 kts 207°
2026-05-09 07:10 -41.32966 174.80865 26 ft 4 kts 237°
2026-05-09 07:10 -41.32968 174.80857 27 ft 4 kts 256°
2026-05-09 07:11 -41.33053 174.80794 28 ft 24 kts 183°
2026-05-09 07:11 -41.33214 174.80784 28 ft 21 kts 183°
2026-05-09 07:11 -41.33368 174.80774 29 ft 24 kts 182°
2026-05-09 07:11 -41.33471 174.80768 27 ft 0 kts 184°
2026-05-09 07:14 -41.33522 174.80698 25 ft 15 kts 256°
2026-05-09 07:14 -41.33487 174.80638 28 ft 12 kts 355°
2026-05-09 07:14 -41.33474 174.80638 27 ft 0 kts
2026-05-09 07:15 -41.33408 174.80641 28 ft 41 kts
2026-05-09 07:16 -41.32824 174.80679 30 ft 123 kts
2026-05-09 07:16 -41.31815 174.80837 494 ft 153 kts 11°
2026-05-09 07:16 -41.30819 174.81177 1710 ft 141 kts 355°
2026-05-09 07:16 -41.29762 174.81149 2344 ft 168 kts 349°
2026-05-09 07:17 -41.28479 174.81138 2571 ft 201 kts 352°
2026-05-09 07:17 -41.27009 174.81070 2784 ft 220 kts 341°
2026-05-09 07:17 -41.25576 174.80238 3126 ft 233 kts 328°
2026-05-09 07:17 -41.23983 174.79632 3883 ft 244 kts 341°
2026-05-09 07:18 -41.22293 174.79128 4506 ft 254 kts 340°
2026-05-09 07:18 -41.20553 174.78558 5319 ft 258 kts 340°
2026-05-09 07:18 -41.18799 174.77964 6173 ft 262 kts 340°
2026-05-09 07:18 -41.17018 174.77350 6923 ft 268 kts 340°
2026-05-09 07:19 -41.15200 174.76721 7747 ft 271 kts 339°
2026-05-09 07:19 -41.13535 174.75652 8558 ft 265 kts 316°
2026-05-09 07:19 -41.12251 174.73913 9376 ft 265 kts 307°
2026-05-09 07:19 -41.11043 174.72045 9815 ft 267 kts 307°
2026-05-09 07:20 -41.09833 174.70154 9986 ft 269 kts 307°
2026-05-09 07:20 -41.08623 174.68273 10014 ft 268 kts 307°
2026-05-09 07:20 -41.07404 174.66390 10022 ft 270 kts 307°
2026-05-09 07:20 -41.06169 174.64495 10032 ft 271 kts 307°
2026-05-09 07:21 -41.04933 174.62606 10039 ft 272 kts 307°
2026-05-09 07:21 -41.03690 174.60709 10040 ft 272 kts 307°
2026-05-09 07:21 -41.02509 174.58787 10028 ft 270 kts 297°
2026-05-09 07:21 -41.01855 174.56501 10038 ft 266 kts 279°
2026-05-09 07:22 -41.01771 174.54068 10049 ft 265 kts 269°
2026-05-09 07:22 -41.01817 174.51630 10034 ft 265 kts 269°
2026-05-09 07:22 -41.01878 174.49194 10033 ft 265 kts 268°
2026-05-09 07:22 -41.01937 174.46751 10034 ft 265 kts 269°
2026-05-09 07:23 -41.01993 174.44306 10034 ft 265 kts 269°
2026-05-09 07:23 -41.02045 174.41865 10036 ft 265 kts 269°
2026-05-09 07:23 -41.02095 174.39420 10037 ft 266 kts 269°
2026-05-09 07:23 -41.02143 174.36969 10037 ft 266 kts 269°
2026-05-09 07:24 -41.02189 174.34516 10031 ft 266 kts 269°
2026-05-09 07:24 -41.02234 174.32095 10038 ft 266 kts 269°
2026-05-09 07:24 -41.02278 174.29639 10032 ft 267 kts 269°
2026-05-09 07:24 -41.02322 174.27187 10042 ft 267 kts 269°
2026-05-09 07:25 -41.02365 174.24728 10040 ft 267 kts 269°
2026-05-09 07:25 -41.02408 174.22265 10039 ft 267 kts 269°
2026-05-09 07:25 -41.02450 174.19803 10039 ft 268 kts 269°
2026-05-09 07:25 -41.02491 174.17337 10046 ft 268 kts 269°
2026-05-09 07:26 -41.02531 174.14864 10048 ft 269 kts 269°
2026-05-09 07:26 -41.02520 174.12378 10087 ft 271 kts 273°
2026-05-09 07:26 -41.02391 174.09786 10249 ft 293 kts 274°
2026-05-09 07:26 -41.02225 174.06985 10428 ft 317 kts 274°
2026-05-09 07:27 -41.02047 174.04005 10881 ft 330 kts 274°
2026-05-09 07:27 -41.01869 174.00957 11598 ft 334 kts 274°
2026-05-09 07:27 -41.01696 173.97916 12335 ft 337 kts 274°
2026-05-09 07:27 -41.01522 173.94799 13042 ft 341 kts 274°
2026-05-09 07:28 -41.01348 173.91652 13727 ft 345 kts 274°
2026-05-09 07:28 -41.01173 173.88468 14327 ft 350 kts 274°
2026-05-09 07:28 -41.00992 173.85222 14923 ft 355 kts 274°
2026-05-09 07:28 -41.00838 173.81941 15541 ft 359 kts 269°
2026-05-09 07:29 -41.01252 173.78669 16120 ft 364 kts 251°
2026-05-09 07:29 -41.01882 173.76608 16535 ft 366 kts 247°
2026-05-09 07:29 -41.03193 173.72768 17282 ft 372 kts 246°
2026-05-09 07:29 -41.04292 173.69648 17902 ft 375 kts 245°
2026-05-09 07:30 -41.05403 173.66499 18427 ft 379 kts 245°
2026-05-09 07:30 -41.06518 173.63316 18994 ft 381 kts 245°
2026-05-09 07:30 -41.07629 173.60118 19540 ft 384 kts 245°
2026-05-09 07:30 -41.08367 173.57979 19892 ft 386 kts 245°
2026-05-09 07:31 -41.09852 173.53655 20564 ft 390 kts 245°
2026-05-09 07:31 -41.10611 173.51432 20909 ft 392 kts 245°
2026-05-09 07:31 -41.12103 173.47055 21593 ft 396 kts 245°
2026-05-09 07:31 -41.13237 173.43717 22091 ft 399 kts 245°
2026-05-09 07:32 -41.14382 173.40342 22582 ft 401 kts 245°
2026-05-09 07:32 -41.15531 173.36953 23066 ft 404 kts 244°
2026-05-09 07:32 -41.16309 173.34653 23343 ft 406 kts 244°
2026-05-09 07:32 -41.17471 173.31216 23736 ft 409 kts 244°
2026-05-09 07:33 -41.18622 173.27809 24131 ft 411 kts 244°
2026-05-09 07:33 -41.20965 173.20858 24916 ft 415 kts 244°
2026-05-09 07:33 -41.22149 173.17338 25281 ft 417 kts 244°
2026-05-09 07:34 -41.23338 173.13802 25642 ft 419 kts 244°
2026-05-09 07:34 -41.24530 173.10250 26010 ft 421 kts 244°
2026-05-09 07:34 -41.25722 173.06692 26383 ft 423 kts 244°
2026-05-09 07:34 -41.26922 173.03106 26737 ft 425 kts 243°
2026-05-09 07:35 -41.28127 172.99503 27074 ft 427 kts 243°
2026-05-09 07:35 -41.29335 172.95883 27425 ft 429 kts 243°
2026-05-09 07:35 -41.30533 172.92291 27765 ft 431 kts 243°
2026-05-09 07:35 -41.31746 172.88647 28090 ft 432 kts 243°
2026-05-09 07:36 -41.32967 172.84977 28429 ft 434 kts 243°
2026-05-09 07:36 -41.34192 172.81288 28754 ft 435 kts 243°
2026-05-09 07:36 -41.35418 172.77593 29073 ft 437 kts 243°
2026-05-09 07:36 -41.36642 172.73895 29423 ft 437 kts 243°
2026-05-09 07:37 -41.37866 172.70192 29858 ft 435 kts 243°
2026-05-09 07:37 -41.39079 172.66516 30240 ft 432 kts 243°
2026-05-09 07:37 -41.40287 172.62854 30621 ft 430 kts 243°
2026-05-09 07:37 -41.41492 172.59199 30920 ft 431 kts 243°
2026-05-09 07:38 -41.42692 172.55550 31248 ft 430 kts 243°
2026-05-09 07:38 -41.43890 172.51901 31634 ft 428 kts 243°
2026-05-09 07:38 -41.45082 172.48268 32005 ft 427 kts 243°
2026-05-09 07:38 -41.46271 172.44640 32324 ft 426 kts 243°
2026-05-09 07:39 -41.47457 172.41019 32634 ft 426 kts 243°
2026-05-09 07:39 -41.48624 172.37445 32993 ft 424 kts 243°
2026-05-09 07:39 -41.49852 172.33884 33319 ft 421 kts 237°
2026-05-09 07:39 -41.51329 172.30560 33608 ft 419 kts 234°
2026-05-09 07:40 -41.52870 172.27274 33902 ft 417 kts 234°
2026-05-09 07:40 -41.54428 172.23996 34107 ft 417 kts 234°
2026-05-09 07:40 -41.55981 172.20720 34303 ft 418 kts 234°
2026-05-09 07:40 -41.57529 172.17431 34534 ft 418 kts 235°
2026-05-09 07:41 -41.59066 172.14140 34743 ft 418 kts 235°
2026-05-09 07:41 -41.60603 172.10830 34930 ft 419 kts 236°
2026-05-09 07:41 -41.62133 172.07518 35123 ft 419 kts 236°
2026-05-09 07:41 -41.63662 172.04199 35347 ft 419 kts 236°
2026-05-09 07:42 -41.65186 172.00884 35566 ft 418 kts 236°
2026-05-09 07:42 -41.66710 171.97564 35682 ft 420 kts 236°
2026-05-09 07:42 -41.68241 171.94226 35679 ft 422 kts 236°
2026-05-09 07:43 -41.71309 171.87523 35686 ft 420 kts 236°
2026-05-09 07:43 -41.74309 171.80953 35672 ft 414 kts 236°
2026-05-09 07:44 -41.77302 171.74386 35679 ft 411 kts 236°
2026-05-09 07:44 -41.80265 171.67872 35677 ft 408 kts 236°
2026-05-09 07:45 -41.83215 171.61373 35683 ft 408 kts 236°
2026-05-09 07:45 -41.86155 171.54883 35691 ft 408 kts 236°
2026-05-09 07:46 -41.89112 171.48341 35688 ft 410 kts 236°
2026-05-09 07:46 -41.92053 171.41821 35688 ft 412 kts 236°
2026-05-09 07:47 -41.95027 171.35212 35685 ft 414 kts 236°
2026-05-09 07:47 -41.98005 171.28578 35681 ft 415 kts 236°
2026-05-09 07:48 -42.00993 171.21907 35680 ft 416 kts 236°
2026-05-09 07:48 -42.03976 171.15233 35680 ft 416 kts 237°
2026-05-09 07:49 -42.06955 171.08553 35673 ft 415 kts 237°
2026-05-09 07:49 -42.09905 171.01923 35672 ft 414 kts 237°
2026-05-09 07:50 -42.12859 170.95267 35674 ft 413 kts 237°
2026-05-09 07:50 -42.15799 170.88630 35673 ft 412 kts 237°
2026-05-09 07:51 -42.18726 170.82008 35672 ft 410 kts 236°
2026-05-09 07:51 -42.21640 170.75402 35672 ft 409 kts 236°
2026-05-09 07:52 -42.24546 170.68798 35672 ft 409 kts 237°
2026-05-09 07:52 -42.27444 170.62197 35675 ft 409 kts 237°
2026-05-09 07:53 -42.30320 170.55633 35671 ft 409 kts 237°
2026-05-09 07:53 -42.33211 170.49019 35670 ft 409 kts 237°
2026-05-09 07:54 -42.36099 170.42398 35670 ft 409 kts 237°
2026-05-09 07:54 -42.38988 170.35760 35674 ft 409 kts 237°
2026-05-09 07:55 -42.41874 170.29111 35670 ft 410 kts 237°
2026-05-09 07:55 -42.44767 170.22434 35671 ft 410 kts 237°
2026-05-09 07:56 -42.47633 170.15803 35672 ft 410 kts 237°
2026-05-09 07:56 -42.50513 170.09123 35668 ft 410 kts 237°
2026-05-09 07:57 -42.53391 170.02435 35669 ft 410 kts 237°
2026-05-09 07:57 -42.56264 169.95743 35666 ft 410 kts 238°
2026-05-09 07:58 -42.59130 169.89051 35666 ft 409 kts 238°
2026-05-09 07:58 -42.61983 169.82375 35666 ft 408 kts 238°
2026-05-09 07:59 -42.64830 169.75698 35664 ft 407 kts 238°
2026-05-09 07:59 -42.67642 169.69087 35662 ft 406 kts 238°
2026-05-09 08:00 -42.70466 169.62434 35666 ft 405 kts 238°
2026-05-09 08:00 -42.73271 169.55810 35666 ft 403 kts 238°
2026-05-09 08:01 -42.76061 169.49206 35664 ft 402 kts 238°
2026-05-09 08:01 -42.78841 169.42614 35660 ft 400 kts 238°
2026-05-09 08:02 -42.81607 169.36038 35661 ft 399 kts 238°
2026-05-09 08:02 -42.84341 169.29522 35661 ft 398 kts 238°
2026-05-09 08:03 -42.87086 169.22968 35659 ft 397 kts 238°
2026-05-09 08:03 -42.89816 169.16433 35662 ft 396 kts 238°
2026-05-09 08:04 -42.92543 169.09892 35659 ft 396 kts 238°
2026-05-09 08:04 -42.95261 169.03357 35658 ft 395 kts 238°
2026-05-09 08:05 -42.97966 168.96837 35653 ft 395 kts 238°
2026-05-09 08:05 -43.00673 168.90300 35655 ft 394 kts 238°
2026-05-09 08:06 -43.03353 168.83813 35657 ft 394 kts 238°
2026-05-09 08:06 -43.06045 168.77282 35657 ft 395 kts 238°
2026-05-09 08:07 -43.08737 168.70736 35650 ft 395 kts 239°
2026-05-09 08:07 -43.11428 168.64178 35651 ft 395 kts 239°
2026-05-09 08:08 -43.14025 168.57550 35642 ft 397 kts 245°
2026-05-09 08:08 -43.15542 168.50242 35640 ft 403 kts 259°
2026-05-09 08:09 -43.16131 168.42585 35653 ft 404 kts 260°
2026-05-09 08:09 -43.16676 168.35059 35650 ft 404 kts 260°
2026-05-09 08:10 -43.17240 168.27432 35649 ft 404 kts 260°
2026-05-09 08:10 -43.17814 168.19773 35653 ft 404 kts 260°
2026-05-09 08:11 -43.18388 168.12097 35667 ft 404 kts 260°
2026-05-09 08:11 -43.18956 168.04439 35653 ft 404 kts 260°
2026-05-09 08:12 -43.19800 167.92935 35668 ft 404 kts 260°
2026-05-09 08:12 -43.20354 167.85281 35657 ft 404 kts 260°
2026-05-09 08:13 -43.20900 167.77675 35655 ft 403 kts 260°
2026-05-09 08:13 -43.21445 167.70011 35660 ft 403 kts 260°
2026-05-09 08:14 -43.21983 167.62361 35659 ft 403 kts 260°
2026-05-09 08:14 -43.22516 167.54720 35659 ft 402 kts 260°
2026-05-09 08:15 -43.23042 167.47115 35664 ft 402 kts 260°
2026-05-09 08:15 -43.23563 167.39486 35663 ft 402 kts 260°
2026-05-09 08:16 -43.24080 167.31862 35667 ft 401 kts 260°
2026-05-09 08:16 -43.24591 167.24236 35673 ft 401 kts 260°
2026-05-09 08:17 -43.25097 167.16616 35674 ft 401 kts 260°
2026-05-09 08:17 -43.25597 167.09000 35668 ft 401 kts 261°
2026-05-09 08:18 -43.26090 167.01433 35674 ft 400 kts 261°
2026-05-09 08:18 -43.26580 166.93818 35681 ft 400 kts 261°
2026-05-09 08:19 -43.27063 166.86207 35677 ft 400 kts 261°
2026-05-09 08:19 -43.27460 166.79887 35680 ft 400 kts 261°
2026-05-09 08:20 -43.27933 166.72282 35689 ft 400 kts 261°
2026-05-09 08:20 -43.28401 166.64688 35686 ft 399 kts 261°
2026-05-09 08:21 -43.28864 166.57088 35690 ft 399 kts 261°
2026-05-09 08:21 -43.29322 166.49486 35689 ft 399 kts 261°
2026-05-09 08:22 -43.29775 166.41894 35695 ft 399 kts 261°
2026-05-09 08:22 -43.30222 166.34307 35694 ft 399 kts 261°
2026-05-09 08:23 -43.30663 166.26728 35695 ft 398 kts 261°
2026-05-09 08:23 -43.31100 166.19144 35693 ft 398 kts 261°
2026-05-09 08:24 -43.31532 166.11556 35699 ft 398 kts 261°
2026-05-09 08:24 -43.31956 166.04030 35705 ft 398 kts 261°
2026-05-09 08:25 -43.32376 165.96468 35702 ft 397 kts 261°
2026-05-09 08:25 -43.32792 165.88894 35708 ft 397 kts 261°
2026-05-09 08:26 -43.33202 165.81337 35708 ft 397 kts 261°
2026-05-09 08:26 -43.33608 165.73770 35709 ft 397 kts 261°
2026-05-09 08:27 -43.34008 165.66213 35712 ft 397 kts 261°
2026-05-09 08:27 -43.34403 165.58646 35715 ft 397 kts 261°
2026-05-09 08:28 -43.34794 165.51079 35718 ft 397 kts 261°
2026-05-09 08:28 -43.35179 165.43510 35718 ft 397 kts 261°
2026-05-09 08:29 -43.35557 165.35992 35719 ft 397 kts 261°
2026-05-09 08:29 -43.35932 165.28434 35724 ft 397 kts 261°
2026-05-09 08:30 -43.36302 165.20875 35722 ft 397 kts 261°
2026-05-09 08:30 -43.36667 165.13303 35721 ft 397 kts 261°
2026-05-09 08:31 -43.37028 165.05734 35728 ft 397 kts 261°
2026-05-09 08:31 -43.37383 164.98170 35728 ft 397 kts 261°
2026-05-09 08:32 -43.37731 164.90644 35730 ft 397 kts 261°
2026-05-09 08:33 -43.38248 164.79284 35734 ft 397 kts 261°
2026-05-09 08:33 -43.38586 164.71710 35732 ft 396 kts 261°
2026-05-09 08:34 -43.38918 164.64152 35734 ft 396 kts 261°
2026-05-09 08:34 -43.39246 164.56575 35740 ft 396 kts 262°
2026-05-09 08:35 -43.39566 164.49055 35748 ft 396 kts 262°
2026-05-09 08:35 -43.39884 164.41493 35744 ft 396 kts 262°
2026-05-09 08:36 -43.40196 164.33933 35746 ft 396 kts 262°
2026-05-09 08:36 -43.40504 164.26368 35749 ft 396 kts 262°
2026-05-09 08:37 -43.40806 164.18800 35751 ft 396 kts 262°
2026-05-09 08:37 -43.41103 164.11243 35754 ft 396 kts 262°
2026-05-09 08:38 -43.41395 164.03686 35754 ft 396 kts 262°
2026-05-09 08:38 -43.41681 163.96183 35755 ft 395 kts 262°
2026-05-09 08:39 -43.41963 163.88626 35755 ft 396 kts 262°
2026-05-09 08:39 -43.42242 163.81019 35761 ft 396 kts 262°
2026-05-09 08:40 -43.42512 163.73513 35762 ft 396 kts 262°
2026-05-09 08:40 -43.42780 163.65947 35765 ft 396 kts 262°
2026-05-09 08:41 -43.43042 163.58377 35764 ft 396 kts 262°
2026-05-09 08:41 -43.43300 163.50808 35766 ft 396 kts 262°
2026-05-09 08:42 -43.43553 163.43217 35766 ft 396 kts 262°
2026-05-09 08:42 -43.43801 163.35636 35773 ft 397 kts 262°
2026-05-09 08:43 -43.44043 163.28100 35771 ft 397 kts 262°
2026-05-09 08:43 -43.44281 163.20504 35776 ft 397 kts 262°
2026-05-09 08:44 -43.44514 163.12912 35776 ft 397 kts 262°
2026-05-09 08:44 -43.44744 163.05321 35778 ft 397 kts 262°
2026-05-09 08:45 -43.44967 162.97725 35780 ft 397 kts 263°
2026-05-09 08:45 -43.45181 162.90128 35787 ft 397 kts 263°
2026-05-09 08:46 -43.45391 162.82525 35786 ft 397 kts 263°
2026-05-09 08:46 -43.45596 162.74924 35785 ft 397 kts 263°
2026-05-09 08:47 -43.45797 162.67323 35788 ft 397 kts 263°
2026-05-09 08:47 -43.45993 162.59717 35786 ft 398 kts 263°
2026-05-09 08:48 -43.46183 162.52109 35792 ft 398 kts 263°
2026-05-09 08:48 -43.46368 162.44553 35792 ft 398 kts 263°
2026-05-09 08:49 -43.46549 162.36931 35795 ft 398 kts 263°
2026-05-09 08:49 -43.46725 162.29299 35798 ft 398 kts 263°
2026-05-09 08:50 -43.46895 162.21675 35802 ft 398 kts 263°
2026-05-09 08:50 -43.47061 162.14045 35802 ft 399 kts 263°
2026-05-09 08:51 -43.47221 162.06444 35804 ft 399 kts 263°
2026-05-09 08:51 -43.47378 161.98794 35809 ft 399 kts 263°
2026-05-09 08:52 -43.47529 161.91151 35808 ft 399 kts 263°
2026-05-09 08:52 -43.47674 161.83515 35811 ft 399 kts 263°
2026-05-09 08:53 -43.47815 161.75857 35816 ft 400 kts 264°
2026-05-09 08:53 -43.47950 161.68252 35819 ft 400 kts 264°
2026-05-09 08:54 -43.48081 161.60574 35818 ft 400 kts 264°
2026-05-09 08:54 -43.48207 161.52913 35815 ft 400 kts 264°
2026-05-09 08:55 -43.48327 161.45252 35823 ft 400 kts 264°
2026-05-09 08:55 -43.48443 161.37591 35820 ft 400 kts 264°
2026-05-09 08:56 -43.48553 161.29921 35827 ft 401 kts 264°
2026-05-09 08:56 -43.48659 161.22247 35826 ft 401 kts 264°
2026-05-09 08:57 -43.48759 161.14556 35830 ft 401 kts 264°
2026-05-09 08:57 -43.48855 161.06869 35833 ft 402 kts 264°
2026-05-09 08:58 -43.48944 160.99216 35837 ft 402 kts 264°
2026-05-09 08:58 -43.49029 160.91519 35839 ft 402 kts 264°
2026-05-09 08:59 -43.49110 160.83806 35843 ft 403 kts 264°
2026-05-09 08:59 -43.49184 160.76090 35848 ft 403 kts 264°
2026-05-09 09:00 -43.49254 160.68368 35847 ft 403 kts 264°
2026-05-09 09:00 -43.49319 160.60642 35850 ft 403 kts 265°
2026-05-09 09:01 -43.49378 160.52915 35856 ft 403 kts 265°
2026-05-09 09:01 -43.49432 160.45194 35858 ft 404 kts 265°
2026-05-09 09:02 -43.49482 160.37456 35863 ft 404 kts 265°
2026-05-09 09:02 -43.49525 160.29721 35860 ft 404 kts 265°
2026-05-09 09:03 -43.49564 160.21972 35868 ft 405 kts 265°
2026-05-09 09:03 -43.49598 160.14253 35869 ft 405 kts 265°
2026-05-09 09:04 -43.49626 160.06492 35871 ft 406 kts 265°
2026-05-09 09:04 -43.49649 159.98728 35870 ft 406 kts 265°
2026-05-09 09:05 -43.49664 159.92245 35874 ft 406 kts 265°
2026-05-09 09:05 -43.49678 159.84448 35875 ft 407 kts 265°
2026-05-09 09:06 -43.49687 159.75382 35878 ft 407 kts 266°
2026-05-09 09:06 -43.49689 159.68844 35884 ft 408 kts 266°
2026-05-09 09:07 -43.49686 159.61072 35882 ft 408 kts 266°
2026-05-09 09:07 -43.49678 159.53244 35885 ft 408 kts 266°
2026-05-09 09:08 -43.49665 159.45423 35886 ft 408 kts 266°
2026-05-09 09:08 -43.49647 159.37582 35887 ft 409 kts 266°
2026-05-09 09:09 -43.49623 159.29792 35889 ft 409 kts 266°
2026-05-09 09:09 -43.49594 159.21946 35894 ft 409 kts 266°
2026-05-09 09:10 -43.49559 159.14104 35897 ft 409 kts 266°
2026-05-09 09:10 -43.49520 159.06306 35896 ft 409 kts 266°
2026-05-09 09:11 -43.49475 158.98453 35902 ft 410 kts 266°
2026-05-09 09:11 -43.49424 158.90590 35903 ft 410 kts 266°
2026-05-09 09:12 -43.49368 158.82725 35906 ft 410 kts 266°
2026-05-09 09:12 -43.49306 158.74867 35910 ft 411 kts 267°
2026-05-09 09:13 -43.49240 158.67000 35912 ft 411 kts 267°
2026-05-09 09:13 -43.49167 158.59124 35914 ft 411 kts 267°
2026-05-09 09:14 -43.49089 158.51242 35913 ft 412 kts 267°
2026-05-09 09:14 -43.49006 158.43392 35913 ft 412 kts 267°
2026-05-09 09:15 -43.48917 158.35483 35917 ft 413 kts 267°
2026-05-09 09:15 -43.48823 158.27575 35929 ft 413 kts 267°
2026-05-09 09:16 -43.48723 158.19660 35924 ft 413 kts 267°
2026-05-09 09:16 -43.48564 158.07838 35931 ft 414 kts 268°
2026-05-09 09:17 -43.48450 157.99916 35935 ft 414 kts 268°
2026-05-09 09:17 -43.48331 157.91977 35932 ft 414 kts 268°
2026-05-09 09:18 -43.48207 157.84035 35937 ft 415 kts 268°
2026-05-09 09:18 -43.48077 157.76098 35940 ft 415 kts 268°
2026-05-09 09:19 -43.47940 157.68152 35942 ft 415 kts 268°
2026-05-09 09:19 -43.47797 157.60205 35945 ft 415 kts 268°
2026-05-09 09:20 -43.47650 157.52294 35946 ft 415 kts 268°
2026-05-09 09:20 -43.47497 157.44356 35951 ft 415 kts 268°
2026-05-09 09:21 -43.47338 157.36394 35953 ft 416 kts 268°
2026-05-09 09:21 -43.47174 157.28415 35955 ft 416 kts 268°
2026-05-09 09:22 -43.47005 157.20504 35960 ft 416 kts 268°
2026-05-09 09:22 -43.46829 157.12533 35961 ft 416 kts 268°
2026-05-09 09:23 -43.46649 157.04574 35966 ft 416 kts 268°
2026-05-09 09:23 -43.46462 156.96602 35968 ft 417 kts 269°
2026-05-09 09:24 -43.46270 156.88633 35972 ft 417 kts 269°
2026-05-09 09:24 -43.46073 156.80666 35974 ft 417 kts 269°
2026-05-09 09:25 -43.45869 156.72672 35976 ft 417 kts 269°
2026-05-09 09:25 -43.45661 156.64745 35980 ft 417 kts 269°
2026-05-09 09:26 -43.45447 156.56771 35983 ft 417 kts 269°
2026-05-09 09:26 -43.45227 156.48787 35981 ft 417 kts 269°
2026-05-09 09:27 -43.45001 156.40805 35985 ft 417 kts 269°
2026-05-09 09:27 -43.44770 156.32827 35991 ft 417 kts 269°
2026-05-09 09:28 -43.44533 156.24845 35994 ft 417 kts 269°
2026-05-09 09:28 -43.44292 156.16919 35996 ft 417 kts 269°
2026-05-09 09:29 -43.44044 156.08933 35996 ft 417 kts 269°
2026-05-09 09:29 -43.43791 156.00956 36001 ft 417 kts 269°
2026-05-09 09:30 -43.43532 155.92979 36005 ft 417 kts 269°
2026-05-09 09:30 -43.43267 155.84995 36009 ft 417 kts 269°
2026-05-09 09:31 -43.42997 155.77011 36011 ft 417 kts 269°
2026-05-09 09:32 -43.42583 155.65089 36015 ft 417 kts 269°
2026-05-09 09:32 -43.42299 155.57113 36018 ft 417 kts 269°
2026-05-09 09:33 -43.42010 155.49142 36015 ft 417 kts 269°
2026-05-09 09:33 -43.41715 155.41171 36024 ft 417 kts 269°
2026-05-09 09:34 -43.41414 155.33193 36024 ft 417 kts 269°
2026-05-09 09:34 -43.41108 155.25218 36029 ft 417 kts 269°
2026-05-09 09:36 -43.39830 154.93373 36038 ft 417 kts 269°
2026-05-09 09:37 -43.39496 154.85402 36038 ft 417 kts 269°
2026-05-09 09:37 -43.39156 154.77420 36044 ft 418 kts 269°
2026-05-09 09:38 -43.38811 154.69446 36050 ft 418 kts 269°
2026-05-09 09:38 -43.38463 154.61531 36044 ft 418 kts 269°
2026-05-09 09:39 -43.38107 154.53565 36049 ft 417 kts 269°
2026-05-09 09:39 -43.37746 154.45599 36052 ft 417 kts 269°
2026-05-09 09:40 -43.37379 154.37643 36055 ft 417 kts 269°
2026-05-09 09:40 -43.37007 154.29679 36055 ft 417 kts 269°
2026-05-09 09:41 -43.36629 154.21711 36061 ft 417 kts 269°
2026-05-09 09:41 -43.36244 154.13740 36065 ft 417 kts 269°
2026-05-09 09:42 -43.35855 154.05776 36068 ft 418 kts 269°
2026-05-09 09:42 -43.35463 153.97859 36073 ft 418 kts 269°
2026-05-09 09:43 -43.35063 153.89903 36073 ft 418 kts 269°
2026-05-09 09:43 -43.34657 153.81933 36076 ft 418 kts 269°
2026-05-09 09:44 -43.34245 153.73976 36079 ft 418 kts 269°
2026-05-09 09:44 -43.33829 153.66015 36080 ft 418 kts 269°
2026-05-09 09:45 -43.33406 153.58061 36082 ft 418 kts 269°
2026-05-09 09:45 -43.32978 153.50101 36085 ft 418 kts 269°
2026-05-09 09:46 -43.32545 153.42138 36094 ft 417 kts 269°
2026-05-09 09:46 -43.32106 153.34187 36090 ft 417 kts 269°
2026-05-09 09:47 -43.31661 153.26232 36097 ft 417 kts 269°
2026-05-09 09:47 -43.31216 153.18349 36086 ft 417 kts 269°
2026-05-09 09:48 -43.30761 153.10409 36106 ft 417 kts 270°
2026-05-09 09:48 -43.30300 153.02458 36106 ft 417 kts 270°
2026-05-09 09:49 -43.29834 152.94511 36100 ft 417 kts 270°
2026-05-09 09:49 -43.29363 152.86578 36115 ft 417 kts 270°
2026-05-09 09:50 -43.28885 152.78622 36114 ft 417 kts 270°
2026-05-09 09:50 -43.28405 152.70723 36115 ft 417 kts 270°
2026-05-09 09:51 -43.27917 152.62788 36114 ft 417 kts 270°
2026-05-09 09:51 -43.27423 152.54847 36125 ft 417 kts 270°
2026-05-09 09:52 -43.26924 152.46907 36126 ft 417 kts 270°
2026-05-09 09:52 -43.26420 152.38978 36127 ft 417 kts 270°
2026-05-09 09:53 -43.25910 152.31038 36133 ft 417 kts 270°
2026-05-09 09:53 -43.25397 152.23154 36130 ft 417 kts 270°
2026-05-09 09:54 -43.24876 152.15219 36136 ft 417 kts 270°
2026-05-09 09:54 -43.24350 152.07290 36141 ft 417 kts 270°
2026-05-09 09:55 -43.23908 152.00701 36141 ft 417 kts 270°
2026-05-09 09:55 -43.23371 151.92763 36142 ft 417 kts 270°
2026-05-09 09:56 -43.22829 151.84835 36146 ft 418 kts 270°
2026-05-09 09:56 -43.22282 151.76911 36149 ft 418 kts 270°
2026-05-09 09:57 -43.21728 151.68977 36153 ft 418 kts 270°
2026-05-09 09:57 -43.21169 151.61046 36155 ft 418 kts 270°
2026-05-09 09:58 -43.20607 151.53150 36157 ft 418 kts 270°
2026-05-09 09:58 -43.20034 151.45167 36158 ft 418 kts 270°
2026-05-09 09:59 -43.19461 151.37275 36162 ft 419 kts 270°
2026-05-09 09:59 -43.18879 151.29344 36163 ft 419 kts 270°
2026-05-09 10:00 -43.18290 151.21378 36167 ft 419 kts 270°
2026-05-09 10:00 -43.17697 151.13452 36170 ft 418 kts 270°
2026-05-09 10:01 -43.17102 151.05538 36173 ft 417 kts 270°
2026-05-09 10:01 -43.16502 150.97642 36179 ft 416 kts 270°
2026-05-09 10:02 -43.15364 150.89818 36184 ft 425 kts 281°
2026-05-09 10:02 -43.13476 150.82129 36181 ft 426 kts 282°
2026-05-09 10:03 -43.11575 150.74496 36191 ft 426 kts 282°
2026-05-09 10:03 -43.09667 150.66749 36191 ft 427 kts 282°
2026-05-09 10:04 -43.07794 150.59095 36195 ft 428 kts 282°
2026-05-09 10:04 -43.05898 150.51352 36198 ft 429 kts 282°
2026-05-09 10:05 -43.03995 150.43604 36204 ft 430 kts 282°
2026-05-09 10:05 -43.02076 150.35822 36204 ft 432 kts 282°
2026-05-09 10:06 -43.00151 150.28041 36212 ft 432 kts 282°
2026-05-09 10:06 -42.98217 150.20254 36212 ft 433 kts 282°
2026-05-09 10:07 -42.96286 150.12501 36216 ft 434 kts 282°
2026-05-09 10:07 -42.94337 150.04705 36218 ft 434 kts 282°
2026-05-09 10:08 -42.92384 149.96916 36220 ft 434 kts 282°
2026-05-09 10:08 -42.90424 149.89126 36226 ft 434 kts 282°
2026-05-09 10:09 -42.88457 149.81334 36230 ft 434 kts 282°
2026-05-09 10:09 -42.86492 149.73583 36216 ft 425 kts 282°
2026-05-09 10:09 -42.85534 149.69839 36196 ft 411 kts 282°
2026-05-09 10:10 -42.84600 149.66185 35742 ft 408 kts 282°
2026-05-09 10:10 -42.83667 149.62511 35155 ft 410 kts 282°
2026-05-09 10:10 -42.82731 149.58824 34474 ft 414 kts 282°
2026-05-09 10:10 -42.81781 149.55079 33627 ft 421 kts 282°
2026-05-09 10:11 -42.80834 149.51364 33075 ft 420 kts 283°
2026-05-09 10:11 -42.79859 149.47562 32602 ft 417 kts 283°
2026-05-09 10:11 -42.78918 149.43908 32176 ft 413 kts 283°
2026-05-09 10:11 -42.77970 149.40232 31766 ft 410 kts 283°
2026-05-09 10:12 -42.77029 149.36584 31356 ft 406 kts 283°
2026-05-09 10:12 -42.76095 149.32967 30962 ft 403 kts 283°
2026-05-09 10:12 -42.75167 149.29375 30574 ft 400 kts 283°
2026-05-09 10:12 -42.74247 149.25819 30154 ft 397 kts 283°
2026-05-09 10:13 -42.73334 149.22294 29690 ft 394 kts 283°
2026-05-09 10:13 -42.72427 149.18800 29278 ft 390 kts 283°
2026-05-09 10:13 -42.71528 149.15340 28887 ft 386 kts 283°
2026-05-09 10:13 -42.70639 149.11922 28476 ft 382 kts 283°
2026-05-09 10:14 -42.69754 149.08527 28084 ft 379 kts 283°
2026-05-09 10:14 -42.68877 149.05164 27693 ft 376 kts 283°
2026-05-09 10:14 -42.68005 149.01825 27308 ft 372 kts 284°
2026-05-09 10:14 -42.67141 148.98524 26917 ft 369 kts 284°
2026-05-09 10:15 -42.66282 148.95244 26545 ft 367 kts 284°
2026-05-09 10:15 -42.65438 148.92027 26176 ft 364 kts 284°
2026-05-09 10:15 -42.64628 148.88789 25701 ft 361 kts 279°
2026-05-09 10:15 -42.64272 148.85415 24996 ft 361 kts 265°
2026-05-09 10:16 -42.64448 148.82030 24503 ft 358 kts 258°
2026-05-09 10:16 -42.64762 148.78702 24144 ft 354 kts 258°
2026-05-09 10:16 -42.65086 148.75391 23783 ft 351 kts 258°
2026-05-09 10:16 -42.65403 148.72116 23329 ft 349 kts 258°
2026-05-09 10:17 -42.65713 148.68862 22880 ft 346 kts 258°
2026-05-09 10:17 -42.66013 148.65635 22355 ft 342 kts 258°
2026-05-09 10:17 -42.66306 148.62442 21754 ft 340 kts 258°
2026-05-09 10:17 -42.66596 148.59254 21169 ft 338 kts 258°
2026-05-09 10:18 -42.66881 148.56095 20646 ft 336 kts 258°
2026-05-09 10:18 -42.67161 148.52963 20115 ft 333 kts 258°
2026-05-09 10:18 -42.67440 148.49841 19593 ft 331 kts 258°
2026-05-09 10:18 -42.67714 148.46751 19088 ft 329 kts 258°
2026-05-09 10:19 -42.67987 148.43674 18578 ft 327 kts 258°
2026-05-09 10:19 -42.68256 148.40622 17982 ft 323 kts 258°
2026-05-09 10:19 -42.68521 148.37607 17369 ft 320 kts 259°
2026-05-09 10:19 -42.68784 148.34606 16753 ft 317 kts 259°
2026-05-09 10:20 -42.69040 148.31678 16158 ft 315 kts 259°
2026-05-09 10:20 -42.69296 148.28735 15579 ft 312 kts 259°
2026-05-09 10:20 -42.69550 148.25814 15011 ft 310 kts 259°
2026-05-09 10:20 -42.69801 148.22917 14459 ft 307 kts 259°
2026-05-09 10:21 -42.70049 148.20045 13881 ft 305 kts 259°
2026-05-09 10:21 -42.70295 148.17195 13291 ft 302 kts 259°
2026-05-09 10:21 -42.70537 148.14366 12723 ft 299 kts 259°
2026-05-09 10:21 -42.70777 148.11569 12148 ft 297 kts 259°
2026-05-09 10:22 -42.71013 148.08800 11673 ft 292 kts 259°
2026-05-09 10:22 -42.71239 148.06117 11397 ft 280 kts 258°
2026-05-09 10:22 -42.71458 148.03522 11082 ft 272 kts 258°
2026-05-09 10:22 -42.71666 148.01067 10721 ft 267 kts 258°
2026-05-09 10:23 -42.71855 147.98834 10338 ft 265 kts 258°
2026-05-09 10:23 -42.72066 147.96355 9861 ft 264 kts 258°
2026-05-09 10:23 -42.72275 147.93878 9351 ft 264 kts 258°
2026-05-09 10:23 -42.72483 147.91405 8869 ft 262 kts 258°
2026-05-09 10:24 -42.72689 147.88948 8403 ft 262 kts 258°
2026-05-09 10:24 -42.72894 147.86492 7972 ft 260 kts 258°
2026-05-09 10:24 -42.73093 147.84069 7643 ft 254 kts 258°
2026-05-09 10:24 -42.73288 147.81708 7376 ft 248 kts 258°
2026-05-09 10:25 -42.73479 147.79391 7127 ft 246 kts 257°
2026-05-09 10:25 -42.73753 147.77153 7010 ft 233 kts 243°
2026-05-09 10:25 -42.74618 147.75449 6896 ft 215 kts 216°
2026-05-09 10:25 -42.75877 147.74480 6670 ft 208 kts 196°
2026-05-09 10:26 -42.77315 147.74185 6449 ft 214 kts 178°
2026-05-09 10:26 -42.78810 147.74549 6212 ft 223 kts 168°
2026-05-09 10:26 -42.80338 147.75108 5965 ft 229 kts 168°
2026-05-09 10:26 -42.81879 147.75683 5677 ft 230 kts 168°
2026-05-09 10:27 -42.83415 147.76249 5449 ft 227 kts 169°
2026-05-09 10:27 -42.84920 147.76799 5331 ft 219 kts 169°
2026-05-09 10:27 -42.86374 147.76886 5224 ft 205 kts 194°
2026-05-09 10:27 -42.87712 147.76281 4993 ft 202 kts 205°
2026-05-09 10:28 -42.88949 147.75449 4749 ft 195 kts 207°
2026-05-09 10:28 -42.90143 147.74624 4491 ft 190 kts 208°
2026-05-09 10:28 -42.91309 147.73822 4255 ft 184 kts 209°
2026-05-09 10:28 -42.92260 147.72732 4019 ft 177 kts 233°
2026-05-09 10:29 -42.92745 147.71222 3737 ft 174 kts 256°
2026-05-09 10:29 -42.92788 147.69592 3480 ft 170 kts 265°
2026-05-09 10:29 -42.92795 147.67980 3203 ft 170 kts 265°
2026-05-09 10:29 -42.92800 147.66358 2936 ft 170 kts 266°
2026-05-09 10:30 -42.92806 147.64780 2678 ft 162 kts 266°
2026-05-09 10:30 -42.92487 147.63356 2395 ft 165 kts 303°
2026-05-09 10:30 -42.91678 147.62231 2168 ft 165 kts 308°
2026-05-09 10:30 -42.90882 147.61125 1883 ft 162 kts 309°
2026-05-09 10:31 -42.90100 147.60047 1614 ft 160 kts 309°
2026-05-09 10:31 -42.89319 147.58969 1374 ft 158 kts 310°
2026-05-09 10:31 -42.88548 147.57907 1141 ft 157 kts 311°
2026-05-09 10:31 -42.87772 147.56843 917 ft 157 kts 312°
2026-05-09 10:32 -42.86999 147.55789 727 ft 157 kts 313°
2026-05-09 10:32 -42.86237 147.54749 619 ft 154 kts 314°
2026-05-09 10:32 -42.85475 147.53710 413 ft 162 kts 315°
2026-05-09 10:32 -42.84708 147.52648 114 ft 152 kts 315°
2026-05-09 10:33 -42.84039 147.51743 25 ft 132 kts 316°
2026-05-09 10:33 -42.83500 147.51018 21 ft 77 kts 315°
2026-05-09 10:33 -42.83313 147.50715 21 ft 29 kts 271°
2026-05-09 10:33 -42.83354 147.50597 21 ft 0 kts 219°
2026-05-09 10:34 -42.83363 147.50587 23 ft 14 kts 214°
2026-05-09 10:34 -42.83474 147.50623 21 ft 19 kts 137°
2026-05-09 10:35 -42.83590 147.50670 23 ft 20 kts 219°
2026-05-09 10:35 -42.83650 147.50593 22 ft 0 kts 222°